,,,PA_Meas_PMT16A,,PR_Meas_QMR101_102,,RH_Meas_QMH101,,SR_Meas_QMS101,,TA_Meas_QMH101,,GenWind,,GenWind,
date,time,status,PA,status,PR,status,RH,status,SR,status,TA,status,DirAvg,status,SpdAvg,
2011-10-10, 00:00:04,VALID,1002.21,VALID,0,VALID,93.9283,VALID,0,VALID,22.864,VALID,48,VALID,0.301562,
2011-10-10, 00:01:04,VALID,1002.22,VALID,0,VALID,93.9283,VALID,0,VALID,22.8623,VALID,51,VALID,1.02617,
2011-10-10, 00:02:04,VALID,1002.22,VALID,0,VALID,93.9664,VALID,0,VALID,22.8835,VALID,51,VALID,0.778125,
2011-10-10, 00:03:04,VALID,1002.22,VALID,0,VALID,93.9664,VALID,0,VALID,22.9047,VALID,51,VALID,0.914063,
2011-10-10, 00:04:04,VALID,1002.22,VALID,0,VALID,93.9969,VALID,0,VALID,22.864,VALID,51,VALID,0.939453,
2011-10-10, 00:05:04,VALID,1002.24,VALID,0,VALID,94.0122,VALID,0,VALID,22.864,VALID,51,VALID,0.894922,
2011-10-10, 00:06:04,VALID,1002.25,VALID,0,VALID,94.0122,VALID,0,VALID,22.8445,VALID,51,VALID,0.809375,
2011-10-10, 00:07:04,VALID,1002.25,VALID,0,VALID,94.0122,VALID,0,VALID,22.802,VALID,51,VALID,0.500391,
2011-10-10, 00:08:04,VALID,1002.25,VALID,0,VALID,94.0122,VALID,0,VALID,22.7647,VALID,51,VALID,0.361719,
2011-10-10, 00:09:04,VALID,1002.25,VALID,0,VALID,94.0274,VALID,0,VALID,22.7452,VALID,51,VALID,0.33125,
2011-10-10, 00:10:04,VALID,1002.22,VALID,0,VALID,94.0274,VALID,0,VALID,22.7647,VALID,51,VALID,0.495703,
2011-10-10, 00:11:04,VALID,1002.23,VALID,0,VALID,94.0198,VALID,0,VALID,22.7842,VALID,51,VALID,0.550391,
2011-10-10, 00:12:04,VALID,1002.2,VALID,0,VALID,94.0503,VALID,0,VALID,22.724,VALID,51,VALID,0.346484,
2011-10-10, 00:13:04,VALID,1002.18,VALID,0,VALID,94.0351,VALID,0,VALID,22.7452,VALID,51,VALID,0.150781,
2011-10-10, 00:14:04,VALID,1002.21,VALID,0,VALID,94.0427,VALID,0,VALID,22.7647,VALID,51,VALID,0,
2011-10-10, 00:15:04,VALID,1002.21,VALID,0,VALID,94.0656,VALID,0,VALID,22.7435,VALID,51,VALID,0,
2011-10-10, 00:16:04,VALID,1002.22,VALID,0,VALID,94.0656,VALID,0,VALID,22.7452,VALID,51,VALID,0,
2011-10-10, 00:17:04,VALID,1002.2,VALID,0,VALID,94.0732,VALID,0,VALID,22.7257,VALID,51,VALID,0,
2011-10-10, 00:18:04,VALID,1002.19,VALID,0,VALID,94.0961,VALID,0,VALID,22.7045,VALID,51,VALID,0,
2011-10-10, 00:19:04,VALID,1002.18,VALID,0,VALID,94.1114,VALID,0,VALID,22.6867,VALID,51,VALID,0,
2011-10-10, 00:20:04,VALID,1002.16,VALID,0,VALID,94.1266,VALID,0,VALID,22.6672,VALID,51,VALID,0,
2011-10-10, 00:21:04,VALID,1002.14,VALID,0,VALID,94.1343,VALID,0.104696,VALID,22.646,VALID,51,VALID,0,
2011-10-10, 00:22:04,VALID,1002.09,VALID,0,VALID,94.1114,VALID,0,VALID,22.6672,VALID,51,VALID,0,
2011-10-10, 00:23:04,VALID,1002.12,VALID,0,VALID,94.1114,VALID,0,VALID,22.7062,VALID,51,VALID,0,
2011-10-10, 00:24:04,VALID,1002.1,VALID,0,VALID,94.1495,VALID,0,VALID,22.7257,VALID,51,VALID,0,
2011-10-10, 00:25:04,VALID,1002.11,VALID,0,VALID,94.1419,VALID,0,VALID,22.7257,VALID,51,VALID,0,
2011-10-10, 00:26:04,VALID,1002.13,VALID,0,VALID,94.1648,VALID,0,VALID,22.6867,VALID,51,VALID,0,
2011-10-10, 00:27:04,VALID,1002.09,VALID,0,VALID,94.1648,VALID,0,VALID,22.6264,VALID,51,VALID,0,
2011-10-10, 00:28:04,VALID,1002.1,VALID,0,VALID,94.1648,VALID,0.104696,VALID,22.6264,VALID,51,VALID,0,
2011-10-10, 00:29:04,VALID,1002.09,VALID,0,VALID,94.1648,VALID,0,VALID,22.6282,VALID,51,VALID,0,
2011-10-10, 00:30:04,VALID,1002.07,VALID,0,VALID,94.1877,VALID,0,VALID,22.6282,VALID,51,VALID,0,
2011-10-10, 00:31:04,VALID,1002.02,VALID,0,VALID,94.2029,VALID,0,VALID,22.5501,VALID,51,VALID,0,
2011-10-10, 00:32:04,VALID,1002.01,VALID,0,VALID,94.1953,VALID,0,VALID,22.4916,VALID,51,VALID,0,
2011-10-10, 00:33:04,VALID,1002.01,VALID,0,VALID,94.2105,VALID,0,VALID,22.3924,VALID,51,VALID,0,
2011-10-10, 00:34:04,VALID,1001.99,VALID,0,VALID,94.2105,VALID,0,VALID,22.4331,VALID,51,VALID,0,
2011-10-10, 00:35:04,VALID,1002,VALID,0,VALID,94.2182,VALID,0,VALID,22.4509,VALID,51,VALID,0,
2011-10-10, 00:36:04,VALID,1001.98,VALID,0,VALID,94.2182,VALID,0,VALID,22.4899,VALID,51,VALID,0,
2011-10-10, 00:37:04,VALID,1001.96,VALID,0,VALID,94.2029,VALID,0,VALID,22.4899,VALID,51,VALID,0.138281,
2011-10-10, 00:38:04,VALID,1001.95,VALID,0,VALID,94.2105,VALID,0,VALID,22.4704,VALID,51,VALID,0.901172,
2011-10-10, 00:39:04,VALID,1001.97,VALID,0,VALID,94.2182,VALID,0,VALID,22.4916,VALID,51,VALID,0.764844,
2011-10-10, 00:40:04,VALID,1001.96,VALID,0,VALID,94.2258,VALID,0,VALID,22.4916,VALID,51,VALID,0.614062,
2011-10-10, 00:41:04,VALID,1001.95,VALID,0,VALID,94.2487,VALID,0,VALID,22.4119,VALID,51,VALID,0.416016,
2011-10-10, 00:42:04,VALID,1001.95,VALID,0,VALID,94.2563,VALID,0,VALID,22.4119,VALID,51,VALID,0.237891,
2011-10-10, 00:43:04,VALID,1001.95,VALID,0,VALID,94.264,VALID,0,VALID,22.3729,VALID,51,VALID,0,
2011-10-10, 00:44:04,VALID,1001.91,VALID,0,VALID,94.264,VALID,0.104696,VALID,22.3729,VALID,51,VALID,0,
2011-10-10, 00:45:04,VALID,1001.93,VALID,0,VALID,94.2563,VALID,0,VALID,22.4136,VALID,51,VALID,0,
2011-10-10, 00:46:04,VALID,1001.88,VALID,0,VALID,94.2487,VALID,0,VALID,22.4916,VALID,51,VALID,0,
2011-10-10, 00:47:04,VALID,1001.89,VALID,0,VALID,94.2334,VALID,0,VALID,22.5306,VALID,51,VALID,0,
2011-10-10, 00:48:04,VALID,1001.86,VALID,0,VALID,94.2487,VALID,0,VALID,22.5501,VALID,51,VALID,0,
2011-10-10, 00:49:04,VALID,1001.85,VALID,0,VALID,94.2563,VALID,0,VALID,22.5501,VALID,51,VALID,0.354297,
2011-10-10, 00:50:04,VALID,1001.85,VALID,0,VALID,94.264,VALID,0,VALID,22.5892,VALID,51,VALID,0.376172,
2011-10-10, 00:51:04,VALID,1001.86,VALID,0,VALID,94.2716,VALID,0,VALID,22.5892,VALID,51,VALID,0.363672,
2011-10-10, 00:52:04,VALID,1001.83,VALID,0,VALID,94.2792,VALID,0,VALID,22.5501,VALID,51,VALID,0,
2011-10-10, 00:53:04,VALID,1001.83,VALID,0,VALID,94.3021,VALID,0,VALID,22.5094,VALID,51,VALID,0,
2011-10-10, 00:54:04,VALID,1001.82,VALID,0,VALID,94.3021,VALID,0,VALID,22.4916,VALID,51,VALID,0,
2011-10-10, 00:55:04,VALID,1001.77,VALID,0,VALID,94.3174,VALID,0,VALID,22.4721,VALID,51,VALID,0,
2011-10-10, 00:56:04,VALID,1001.79,VALID,0,VALID,94.3097,VALID,0,VALID,22.4526,VALID,51,VALID,0,
2011-10-10, 00:57:04,VALID,1001.75,VALID,0,VALID,94.3021,VALID,0,VALID,22.4721,VALID,51,VALID,0,
2011-10-10, 00:58:04,VALID,1001.77,VALID,0,VALID,94.2868,VALID,0,VALID,22.4721,VALID,51,VALID,0,
2011-10-10, 00:59:04,VALID,1001.77,VALID,0,VALID,94.3174,VALID,0,VALID,22.4916,VALID,51,VALID,0,
2011-10-10, 01:00:04,VALID,1001.77,VALID,0,VALID,94.3174,VALID,0,VALID,22.4721,VALID,51,VALID,0,
2011-10-10, 01:01:04,VALID,1001.75,VALID,0,VALID,94.3097,VALID,0,VALID,22.4721,VALID,51,VALID,0,
2011-10-10, 01:02:04,VALID,1001.77,VALID,0,VALID,94.325,VALID,0,VALID,22.4526,VALID,51,VALID,0,
2011-10-10, 01:03:04,VALID,1001.77,VALID,0,VALID,94.3326,VALID,0,VALID,22.4509,VALID,51,VALID,0,
2011-10-10, 01:04:04,VALID,1001.81,VALID,0,VALID,94.325,VALID,0,VALID,22.4721,VALID,51,VALID,0,
2011-10-10, 01:05:04,VALID,1001.78,VALID,0,VALID,94.3403,VALID,0,VALID,22.4916,VALID,51,VALID,0,
2011-10-10, 01:06:04,VALID,1001.78,VALID,0,VALID,94.3174,VALID,0,VALID,22.4916,VALID,51,VALID,0,
2011-10-10, 01:07:04,VALID,1001.77,VALID,0,VALID,94.3326,VALID,0,VALID,22.4916,VALID,51,VALID,0,
2011-10-10, 01:08:04,VALID,1001.76,VALID,0,VALID,94.3326,VALID,0,VALID,22.4916,VALID,51,VALID,0,
2011-10-10, 01:09:04,VALID,1001.78,VALID,0,VALID,94.3403,VALID,0,VALID,22.4509,VALID,51,VALID,0,
2011-10-10, 01:10:04,VALID,1001.79,VALID,0,VALID,94.3403,VALID,0,VALID,22.4704,VALID,51,VALID,0,
2011-10-10, 01:11:04,VALID,1001.8,VALID,0,VALID,94.3631,VALID,0,VALID,22.5111,VALID,51,VALID,0,
2011-10-10, 01:12:04,VALID,1001.83,VALID,0,VALID,94.3479,VALID,0,VALID,22.5306,VALID,51,VALID,0,
2011-10-10, 01:13:04,VALID,1001.82,VALID,0,VALID,94.3403,VALID,0,VALID,22.5306,VALID,51,VALID,0,
2011-10-10, 01:14:04,VALID,1001.82,VALID,0,VALID,94.3708,VALID,0,VALID,22.5111,VALID,51,VALID,0.415625,
2011-10-10, 01:15:04,VALID,1001.8,VALID,0,VALID,94.3631,VALID,0,VALID,22.4721,VALID,51,VALID,0.430078,
2011-10-10, 01:16:04,VALID,1001.84,VALID,0,VALID,94.3631,VALID,0,VALID,22.4721,VALID,51,VALID,0,
2011-10-10, 01:17:04,VALID,1001.84,VALID,0,VALID,94.3631,VALID,0,VALID,22.4721,VALID,51,VALID,0,
2011-10-10, 01:18:04,VALID,1001.83,VALID,0,VALID,94.3555,VALID,0,VALID,22.4331,VALID,51,VALID,0,
2011-10-10, 01:19:04,VALID,1001.8,VALID,0,VALID,94.3784,VALID,0,VALID,22.4331,VALID,51,VALID,0,
2011-10-10, 01:20:04,VALID,1001.77,VALID,0,VALID,94.3708,VALID,0,VALID,22.3941,VALID,51,VALID,0,
2011-10-10, 01:21:04,VALID,1001.75,VALID,0,VALID,94.3784,VALID,0,VALID,22.4136,VALID,51,VALID,0,
2011-10-10, 01:22:04,VALID,1001.77,VALID,0,VALID,94.3937,VALID,0,VALID,22.4331,VALID,51,VALID,0,
2011-10-10, 01:23:04,VALID,1001.76,VALID,0,VALID,94.4013,VALID,0,VALID,22.4721,VALID,51,VALID,0,
2011-10-10, 01:24:04,VALID,1001.75,VALID,0,VALID,94.3784,VALID,0,VALID,22.5111,VALID,51,VALID,0,
2011-10-10, 01:25:04,VALID,1001.79,VALID,0,VALID,94.3631,VALID,0,VALID,22.5501,VALID,51,VALID,0,
2011-10-10, 01:26:04,VALID,1001.78,VALID,0,VALID,94.3708,VALID,0,VALID,22.5696,VALID,51,VALID,0,
2011-10-10, 01:27:04,VALID,1001.81,VALID,0,VALID,94.3937,VALID,0,VALID,22.5306,VALID,51,VALID,0,
2011-10-10, 01:28:04,VALID,1001.83,VALID,0,VALID,94.3937,VALID,0,VALID,22.5306,VALID,51,VALID,0,
2011-10-10, 01:29:04,VALID,1001.84,VALID,0,VALID,94.4318,VALID,0,VALID,22.4916,VALID,51,VALID,0,
2011-10-10, 01:30:04,VALID,1001.79,VALID,0,VALID,94.4242,VALID,0,VALID,22.4526,VALID,51,VALID,0.7125,
2011-10-10, 01:31:04,VALID,1001.78,VALID,0,VALID,94.4242,VALID,0,VALID,22.4331,VALID,51,VALID,0.618359,
2011-10-10, 01:32:04,VALID,1001.77,VALID,0,VALID,94.4165,VALID,0,VALID,22.4331,VALID,51,VALID,0.736719,
2011-10-10, 01:33:04,VALID,1001.74,VALID,0,VALID,94.4165,VALID,0,VALID,22.4136,VALID,51,VALID,0.641406,
2011-10-10, 01:34:04,VALID,1001.73,VALID,0,VALID,94.4242,VALID,0,VALID,22.4136,VALID,51,VALID,0.722266,
2011-10-10, 01:35:04,VALID,1001.76,VALID,0,VALID,94.4089,VALID,0,VALID,22.4331,VALID,51,VALID,0.738281,
2011-10-10, 01:36:04,VALID,1001.73,VALID,0,VALID,94.4165,VALID,0,VALID,22.4526,VALID,51,VALID,0.833203,
2011-10-10, 01:37:04,VALID,1001.73,VALID,0,VALID,94.4165,VALID,0,VALID,22.4314,VALID,51,VALID,0.875781,
2011-10-10, 01:38:04,VALID,1001.71,VALID,0,VALID,94.4165,VALID,0,VALID,22.4721,VALID,51,VALID,0.751953,
2011-10-10, 01:39:04,VALID,1001.72,VALID,0,VALID,94.4165,VALID,0,VALID,22.4721,VALID,51,VALID,0.675781,
2011-10-10, 01:40:04,VALID,1001.71,VALID,0,VALID,94.4318,VALID,0,VALID,22.4704,VALID,51,VALID,0.432422,
2011-10-10, 01:41:04,VALID,1001.71,VALID,0,VALID,94.4318,VALID,0,VALID,22.5111,VALID,51,VALID,0.341406,
2011-10-10, 01:42:04,VALID,1001.74,VALID,0,VALID,94.4318,VALID,0,VALID,22.5111,VALID,51,VALID,0.355078,
2011-10-10, 01:43:04,VALID,1001.73,VALID,0,VALID,94.4165,VALID,0,VALID,22.5501,VALID,51,VALID,0.410156,
2011-10-10, 01:44:04,VALID,1001.69,VALID,0,VALID,94.4013,VALID,0,VALID,22.5892,VALID,51,VALID,0.675391,
2011-10-10, 01:45:04,VALID,1001.69,VALID,0,VALID,94.4089,VALID,0,VALID,22.5874,VALID,51,VALID,0.601172,
2011-10-10, 01:46:04,VALID,1001.68,VALID,0,VALID,94.4089,VALID,0,VALID,22.6282,VALID,51,VALID,0.0289063,
2011-10-10, 01:47:04,VALID,1001.67,VALID,0,VALID,94.4089,VALID,0,VALID,22.6867,VALID,51,VALID,0,
2011-10-10, 01:48:04,VALID,1001.69,VALID,0,VALID,94.386,VALID,0,VALID,22.7062,VALID,51,VALID,0,
2011-10-10, 01:49:04,VALID,1001.66,VALID,0,VALID,94.4242,VALID,0,VALID,22.7452,VALID,51,VALID,0,
2011-10-10, 01:50:04,VALID,1001.67,VALID,0,VALID,94.4013,VALID,0,VALID,22.7257,VALID,51,VALID,0,
2011-10-10, 01:51:04,VALID,1001.68,VALID,0,VALID,94.4318,VALID,0,VALID,22.7452,VALID,51,VALID,0,
2011-10-10, 01:52:04,VALID,1001.71,VALID,0,VALID,94.4318,VALID,0,VALID,22.7062,VALID,51,VALID,0,
2011-10-10, 01:53:04,VALID,1001.68,VALID,0,VALID,94.4242,VALID,0,VALID,22.7274,VALID,51,VALID,0,
2011-10-10, 01:54:04,VALID,1001.69,VALID,0,VALID,94.4242,VALID,0,VALID,22.7079,VALID,51,VALID,0,
2011-10-10, 01:55:04,VALID,1001.69,VALID,0,VALID,94.4471,VALID,0,VALID,22.7079,VALID,51,VALID,0,
2011-10-10, 01:56:04,VALID,1001.66,VALID,0,VALID,94.4165,VALID,0,VALID,22.6884,VALID,51,VALID,0,
2011-10-10, 01:57:04,VALID,1001.63,VALID,0,VALID,94.4318,VALID,0,VALID,22.6689,VALID,51,VALID,0,
2011-10-10, 01:58:04,VALID,1001.62,VALID,0,VALID,94.4242,VALID,0,VALID,22.6884,VALID,51,VALID,0,
2011-10-10, 01:59:04,VALID,1001.61,VALID,0,VALID,94.4165,VALID,0,VALID,22.7274,VALID,51,VALID,0,
2011-10-10, 02:00:04,VALID,1001.63,VALID,0,VALID,94.4013,VALID,0,VALID,22.7469,VALID,51,VALID,0,
2011-10-10, 02:01:04,VALID,1001.62,VALID,0,VALID,94.4242,VALID,0,VALID,22.7664,VALID,51,VALID,0,
2011-10-10, 02:02:04,VALID,1001.62,VALID,0,VALID,94.4089,VALID,0,VALID,22.786,VALID,51,VALID,0,
2011-10-10, 02:03:04,VALID,1001.61,VALID,0,VALID,94.4013,VALID,0,VALID,22.786,VALID,51,VALID,0,
2011-10-10, 02:04:04,VALID,1001.57,VALID,0,VALID,94.3937,VALID,0,VALID,22.7452,VALID,51,VALID,0,
2011-10-10, 02:05:04,VALID,1001.58,VALID,0,VALID,94.4013,VALID,0,VALID,22.7452,VALID,51,VALID,0,
2011-10-10, 02:06:04,VALID,1001.58,VALID,0,VALID,94.3631,VALID,0,VALID,22.7452,VALID,51,VALID,0,
2011-10-10, 02:07:04,VALID,1001.57,VALID,0,VALID,94.386,VALID,0,VALID,22.7452,VALID,51,VALID,0,
2011-10-10, 02:08:04,VALID,1001.6,VALID,0,VALID,94.3937,VALID,0,VALID,22.7257,VALID,51,VALID,0,
2011-10-10, 02:09:04,VALID,1001.58,VALID,0,VALID,94.3937,VALID,0,VALID,22.7062,VALID,51,VALID,0,
2011-10-10, 02:10:04,VALID,1001.61,VALID,0,VALID,94.3631,VALID,0,VALID,22.6477,VALID,51,VALID,0,
2011-10-10, 02:11:04,VALID,1001.6,VALID,0,VALID,94.3479,VALID,0,VALID,22.6689,VALID,51,VALID,0,
2011-10-10, 02:12:04,VALID,1001.61,VALID,0,VALID,94.3555,VALID,0,VALID,22.6672,VALID,51,VALID,0,
2011-10-10, 02:13:04,VALID,1001.62,VALID,0,VALID,94.3326,VALID,0,VALID,22.6477,VALID,51,VALID,0,
2011-10-10, 02:14:04,VALID,1001.61,VALID,0,VALID,94.3479,VALID,0,VALID,22.6689,VALID,51,VALID,0,
2011-10-10, 02:15:04,VALID,1001.6,VALID,0,VALID,94.3174,VALID,0,VALID,22.6477,VALID,51,VALID,0,
2011-10-10, 02:16:04,VALID,1001.6,VALID,0,VALID,94.3174,VALID,0,VALID,22.6299,VALID,51,VALID,0,
2011-10-10, 02:17:05,VALID,1001.6,VALID,0,VALID,94.325,VALID,0,VALID,22.5714,VALID,51,VALID,0,
2011-10-10, 02:18:05,VALID,1001.59,VALID,0,VALID,94.2945,VALID,0,VALID,22.5323,VALID,51,VALID,0,
2011-10-10, 02:19:05,VALID,1001.57,VALID,0,VALID,94.2792,VALID,0,VALID,22.4721,VALID,51,VALID,0,
2011-10-10, 02:20:05,VALID,1001.58,VALID,0,VALID,94.2792,VALID,0,VALID,22.4348,VALID,51,VALID,0,
2011-10-10, 02:21:05,VALID,1001.57,VALID,0,VALID,94.264,VALID,0,VALID,22.3958,VALID,51,VALID,0,
2011-10-10, 02:22:05,VALID,1001.58,VALID,0,VALID,94.2563,VALID,0,VALID,22.3534,VALID,51,VALID,0,
2011-10-10, 02:23:05,VALID,1001.53,VALID,0,VALID,94.2334,VALID,0,VALID,22.3924,VALID,51,VALID,0,
2011-10-10, 02:24:05,VALID,1001.52,VALID,0,VALID,94.2258,VALID,0,VALID,22.4136,VALID,51,VALID,0,
2011-10-10, 02:25:05,VALID,1001.49,VALID,0,VALID,94.2411,VALID,0,VALID,22.3941,VALID,51,VALID,0,
2011-10-10, 02:26:05,VALID,1001.48,VALID,0,VALID,94.2487,VALID,0,VALID,22.3729,VALID,51,VALID,0,
2011-10-10, 02:27:05,VALID,1001.5,VALID,0,VALID,94.2334,VALID,0,VALID,22.4136,VALID,51,VALID,0,
2011-10-10, 02:28:05,VALID,1001.51,VALID,0,VALID,94.2258,VALID,0,VALID,22.3941,VALID,51,VALID,0,
2011-10-10, 02:29:05,VALID,1001.52,VALID,0,VALID,94.2334,VALID,0,VALID,22.4331,VALID,51,VALID,0,
2011-10-10, 02:30:05,VALID,1001.55,VALID,0,VALID,94.1953,VALID,0,VALID,22.4721,VALID,51,VALID,0,
2011-10-10, 02:31:05,VALID,1001.57,VALID,0,VALID,94.2105,VALID,0,VALID,22.4509,VALID,51,VALID,0,
2011-10-10, 02:32:05,VALID,1001.57,VALID,0,VALID,94.2258,VALID,0,VALID,22.4721,VALID,51,VALID,0,
2011-10-10, 02:33:05,VALID,1001.57,VALID,0,VALID,94.2182,VALID,0,VALID,22.4721,VALID,51,VALID,0,
2011-10-10, 02:34:05,VALID,1001.57,VALID,0,VALID,94.2487,VALID,0,VALID,22.4721,VALID,51,VALID,0,
2011-10-10, 02:35:05,VALID,1001.53,VALID,0,VALID,94.2411,VALID,0,VALID,22.4314,VALID,51,VALID,0,
2011-10-10, 02:36:05,VALID,1001.53,VALID,0,VALID,94.2487,VALID,0,VALID,22.4136,VALID,51,VALID,0,
2011-10-10, 02:37:05,VALID,1001.52,VALID,0,VALID,94.2411,VALID,0,VALID,22.4348,VALID,51,VALID,0,
2011-10-10, 02:38:05,VALID,1001.54,VALID,0,VALID,94.2487,VALID,0,VALID,22.3746,VALID,51,VALID,0,
2011-10-10, 02:39:05,VALID,1001.51,VALID,0,VALID,94.2487,VALID,0,VALID,22.3958,VALID,51,VALID,0,
2011-10-10, 02:40:05,VALID,1001.51,VALID,0,VALID,94.264,VALID,0,VALID,22.3958,VALID,51,VALID,0,
2011-10-10, 02:41:05,VALID,1001.47,VALID,0,VALID,94.2563,VALID,0,VALID,22.3941,VALID,51,VALID,0,
2011-10-10, 02:42:05,VALID,1001.46,VALID,0,VALID,94.2563,VALID,0,VALID,22.3746,VALID,51,VALID,0,
2011-10-10, 02:43:05,VALID,1001.44,VALID,0,VALID,94.2945,VALID,0,VALID,22.3958,VALID,51,VALID,0,
2011-10-10, 02:44:05,VALID,1001.44,VALID,0,VALID,94.2792,VALID,0,VALID,22.3746,VALID,51,VALID,0,
2011-10-10, 02:45:05,VALID,1001.43,VALID,0,VALID,94.2716,VALID,0,VALID,22.3551,VALID,51,VALID,0,
2011-10-10, 02:46:05,VALID,1001.43,VALID,0,VALID,94.2868,VALID,0,VALID,22.3373,VALID,51,VALID,0,
2011-10-10, 02:47:05,VALID,1001.41,VALID,0,VALID,94.3021,VALID,0,VALID,22.2983,VALID,51,VALID,0,
2011-10-10, 02:48:05,VALID,1001.43,VALID,0,VALID,94.3097,VALID,0,VALID,22.2788,VALID,51,VALID,0,
2011-10-10, 02:49:05,VALID,1001.41,VALID,0,VALID,94.2868,VALID,0,VALID,22.2592,VALID,51,VALID,0,
2011-10-10, 02:50:05,VALID,1001.41,VALID,0,VALID,94.2945,VALID,0,VALID,22.2788,VALID,51,VALID,0,
2011-10-10, 02:51:05,VALID,1001.39,VALID,0,VALID,94.2868,VALID,0,VALID,22.2983,VALID,51,VALID,0,
2011-10-10, 02:52:05,VALID,1001.34,VALID,0,VALID,94.2792,VALID,0,VALID,22.3551,VALID,51,VALID,0,
2011-10-10, 02:53:05,VALID,1001.33,VALID,0,VALID,94.2868,VALID,0,VALID,22.4136,VALID,51,VALID,0,
2011-10-10, 02:54:05,VALID,1001.32,VALID,0,VALID,94.2792,VALID,0,VALID,22.4704,VALID,51,VALID,0,
2011-10-10, 02:55:05,VALID,1001.32,VALID,0,VALID,94.3021,VALID,0,VALID,22.5306,VALID,51,VALID,0,
2011-10-10, 02:56:05,VALID,1001.32,VALID,0,VALID,94.2792,VALID,0,VALID,22.5501,VALID,51,VALID,0,
2011-10-10, 02:57:05,VALID,1001.32,VALID,0,VALID,94.3097,VALID,0.104696,VALID,22.5679,VALID,51,VALID,0,
2011-10-10, 02:58:05,VALID,1001.31,VALID,0,VALID,94.2945,VALID,0,VALID,22.6087,VALID,51,VALID,0,
2011-10-10, 02:59:05,VALID,1001.33,VALID,0,VALID,94.3097,VALID,0,VALID,22.5874,VALID,51,VALID,0,
2011-10-10, 03:00:05,VALID,1001.34,VALID,0,VALID,94.325,VALID,0,VALID,22.6087,VALID,51,VALID,1.09453,
2011-10-10, 03:01:05,VALID,1001.32,VALID,0,VALID,94.325,VALID,0,VALID,22.5892,VALID,51,VALID,1.22734,
2011-10-10, 03:02:05,VALID,1001.3,VALID,0,VALID,94.3326,VALID,0,VALID,22.5289,VALID,51,VALID,1.10117,
2011-10-10, 03:03:05,VALID,1001.3,VALID,0,VALID,94.325,VALID,0,VALID,22.5094,VALID,51,VALID,1.00547,
2011-10-10, 03:04:05,VALID,1001.3,VALID,0,VALID,94.325,VALID,0,VALID,22.5111,VALID,51,VALID,0.890625,
2011-10-10, 03:05:05,VALID,1001.29,VALID,0,VALID,94.3174,VALID,0,VALID,22.4704,VALID,51,VALID,0.686328,
2011-10-10, 03:06:05,VALID,1001.29,VALID,0,VALID,94.3097,VALID,0,VALID,22.4916,VALID,51,VALID,0.639844,
2011-10-10, 03:07:05,VALID,1001.27,VALID,0,VALID,94.3021,VALID,0,VALID,22.4721,VALID,51,VALID,0.541406,
2011-10-10, 03:08:05,VALID,1001.29,VALID,0,VALID,94.3021,VALID,0,VALID,22.4721,VALID,51,VALID,0.485938,
2011-10-10, 03:09:05,VALID,1001.28,VALID,0,VALID,94.2792,VALID,0,VALID,22.4721,VALID,51,VALID,0.455078,
2011-10-10, 03:10:05,VALID,1001.26,VALID,0,VALID,94.3021,VALID,0,VALID,22.4314,VALID,51,VALID,0,
2011-10-10, 03:11:05,VALID,1001.28,VALID,0,VALID,94.3021,VALID,0,VALID,22.3924,VALID,51,VALID,0,
2011-10-10, 03:12:05,VALID,1001.25,VALID,0,VALID,94.3097,VALID,0,VALID,22.3941,VALID,51,VALID,0,
2011-10-10, 03:13:05,VALID,1001.2,VALID,0,VALID,94.2716,VALID,0,VALID,22.4136,VALID,51,VALID,0,
2011-10-10, 03:14:05,VALID,1001.21,VALID,0,VALID,94.2792,VALID,0,VALID,22.4119,VALID,51,VALID,0,
2011-10-10, 03:15:05,VALID,1001.16,VALID,0,VALID,94.2563,VALID,0.104696,VALID,22.4526,VALID,51,VALID,0,
2011-10-10, 03:16:05,VALID,1001.16,VALID,0,VALID,94.2563,VALID,0,VALID,22.4526,VALID,51,VALID,0,
2011-10-10, 03:17:05,VALID,1001.12,VALID,0,VALID,94.2563,VALID,0,VALID,22.4721,VALID,51,VALID,0,
2011-10-10, 03:18:05,VALID,1001.11,VALID,0,VALID,94.2563,VALID,0,VALID,22.4331,VALID,51,VALID,0,
2011-10-10, 03:19:05,VALID,1001.06,VALID,0,VALID,94.2563,VALID,0,VALID,22.4136,VALID,51,VALID,0,
2011-10-10, 03:20:05,VALID,1001.07,VALID,0,VALID,94.2487,VALID,0,VALID,22.4331,VALID,51,VALID,0,
2011-10-10, 03:21:05,VALID,1001.04,VALID,0,VALID,94.264,VALID,0,VALID,22.4526,VALID,51,VALID,0,
2011-10-10, 03:22:05,VALID,1001.07,VALID,0,VALID,94.264,VALID,0,VALID,22.4526,VALID,51,VALID,0,
2011-10-10, 03:23:05,VALID,1001.08,VALID,0,VALID,94.2716,VALID,0,VALID,22.4331,VALID,51,VALID,0,
2011-10-10, 03:24:05,VALID,1001.09,VALID,0,VALID,94.2716,VALID,0,VALID,22.4136,VALID,51,VALID,0,
2011-10-10, 03:25:05,VALID,1001.12,VALID,0,VALID,94.264,VALID,0.104696,VALID,22.4331,VALID,51,VALID,0,
2011-10-10, 03:26:05,VALID,1001.12,VALID,0,VALID,94.2716,VALID,0,VALID,22.4526,VALID,51,VALID,0,
2011-10-10, 03:27:05,VALID,1001.1,VALID,0,VALID,94.2945,VALID,0,VALID,22.3941,VALID,51,VALID,0,
2011-10-10, 03:28:05,VALID,1001.1,VALID,0,VALID,94.2868,VALID,0,VALID,22.3941,VALID,51,VALID,0,
2011-10-10, 03:29:05,VALID,1001.11,VALID,0,VALID,94.2868,VALID,0,VALID,22.4119,VALID,51,VALID,0,
2011-10-10, 03:30:05,VALID,1001.11,VALID,0,VALID,94.2716,VALID,0,VALID,22.3941,VALID,51,VALID,0,
2011-10-10, 03:31:05,VALID,1001.06,VALID,0,VALID,94.3097,VALID,0,VALID,22.3356,VALID,51,VALID,0,
2011-10-10, 03:32:05,VALID,1001.08,VALID,0,VALID,94.2945,VALID,0,VALID,22.2949,VALID,51,VALID,0,
2011-10-10, 03:33:05,VALID,1001.09,VALID,0,VALID,94.2868,VALID,0,VALID,22.3356,VALID,51,VALID,0,
2011-10-10, 03:34:05,VALID,1001.08,VALID,0,VALID,94.2792,VALID,0.104696,VALID,22.3534,VALID,51,VALID,0,
2011-10-10, 03:35:05,VALID,1001.09,VALID,0,VALID,94.2868,VALID,0,VALID,22.3941,VALID,51,VALID,0,
2011-10-10, 03:36:05,VALID,1001.11,VALID,0,VALID,94.2868,VALID,0,VALID,22.4136,VALID,51,VALID,0,
2011-10-10, 03:37:05,VALID,1001.14,VALID,0,VALID,94.2868,VALID,0,VALID,22.3551,VALID,51,VALID,0,
2011-10-10, 03:38:05,VALID,1001.16,VALID,0,VALID,94.3021,VALID,0,VALID,22.2966,VALID,51,VALID,0,
2011-10-10, 03:39:05,VALID,1001.13,VALID,0,VALID,94.3097,VALID,0,VALID,22.3178,VALID,51,VALID,0,
2011-10-10, 03:40:05,VALID,1001.13,VALID,0,VALID,94.3021,VALID,0,VALID,22.3178,VALID,51,VALID,0,
2011-10-10, 03:41:05,VALID,1001.13,VALID,0,VALID,94.2792,VALID,0,VALID,22.3178,VALID,51,VALID,0,
2011-10-10, 03:42:05,VALID,1001.11,VALID,0,VALID,94.3097,VALID,0,VALID,22.3178,VALID,51,VALID,0,
2011-10-10, 03:43:05,VALID,1001.1,VALID,0,VALID,94.3174,VALID,0,VALID,22.2771,VALID,51,VALID,0.709766,
2011-10-10, 03:44:05,VALID,1001.12,VALID,0,VALID,94.3021,VALID,0,VALID,22.3178,VALID,51,VALID,0.889453,
2011-10-10, 03:45:05,VALID,1001.1,VALID,0,VALID,94.325,VALID,0,VALID,22.2202,VALID,51,VALID,0.906641,
2011-10-10, 03:46:05,VALID,1001.1,VALID,0,VALID,94.3326,VALID,0,VALID,22.1812,VALID,51,VALID,0.832422,
2011-10-10, 03:47:05,VALID,1001.09,VALID,0,VALID,94.3479,VALID,0,VALID,22.1422,VALID,51,VALID,0.625781,
2011-10-10, 03:48:05,VALID,1001.12,VALID,0,VALID,94.3555,VALID,0,VALID,22.1227,VALID,51,VALID,0.648047,
2011-10-10, 03:49:05,VALID,1001.09,VALID,0,VALID,94.3479,VALID,0,VALID,22.0837,VALID,51,VALID,0.458203,
2011-10-10, 03:50:05,VALID,1001.11,VALID,0,VALID,94.3555,VALID,0,VALID,22.0447,VALID,51,VALID,0.442578,
2011-10-10, 03:51:05,VALID,1001.12,VALID,0,VALID,94.3403,VALID,0,VALID,22.0642,VALID,51,VALID,0.7625,
2011-10-10, 03:52:05,VALID,1001.14,VALID,0,VALID,94.3555,VALID,0,VALID,22.043,VALID,51,VALID,1.04531,
2011-10-10, 03:53:05,VALID,1001.15,VALID,0,VALID,94.3555,VALID,0,VALID,22.0625,VALID,51,VALID,1.02188,
2011-10-10, 03:54:05,VALID,1001.16,VALID,0,VALID,94.3479,VALID,0.104696,VALID,22.0413,VALID,24,VALID,1.2793,
2011-10-10, 03:55:05,VALID,1001.15,VALID,0,VALID,94.3403,VALID,0.104696,VALID,22.0608,VALID,24,VALID,1.19805,
2011-10-10, 03:56:05,VALID,1001.17,VALID,0,VALID,94.3555,VALID,0,VALID,22.121,VALID,23,VALID,0.929297,
2011-10-10, 03:57:05,VALID,1001.13,VALID,0,VALID,94.3403,VALID,0,VALID,22.16,VALID,23,VALID,0.723828,